Viroqua, WI

11:44 PM CST on December 05, 2019 (GMT -0600)
Viroqua

Weather History for KY51 - October, 2019

Change the Weather History Date:

Monday, October 21, 2019

  Actual Average (KCMY) Record (KCMY)
Temperature  
Mean Temperature 52 °F -  
Max Temperature 61 °F 58 °F 82 °F (2011)
Min Temperature 43 °F 34 °F 14 °F (1960)
Degree Days  
Heating Degree Days 14    
Growing Degree Days 2 (Base 50)    
Moisture  
Dew Point 46 °F    
Average Humidity 85    
Maximum Humidity 100    
Minimum Humidity 62    
Precipitation  
Precipitation 1.35 in - - ()
Sea Level Pressure  
Sea Level Pressure 29.41 in    
Wind  
Wind Speed 13 mph ()    
Max Wind Speed 25 mph    
Max Gust Speed 36 mph    
Visibility 8.1 miles    
Events      
Averages and records for this station are not official NWS values.
T = Trace of Precipitation, MM = Missing Value Source: Averaged Metar Reports

Daily Weather History Graph

Daily Weather History Graph

Search for Another Location

Airport or City:

Astronomy

Oct. 21, 2019 Rise Set
Actual Time 7:24 AM CDT 6:10 PM CDT
Civil Twilight 6:55 AM CDT 6:39 PM CDT
Nautical Twilight 6:22 AM CDT 7:13 PM CDT
Astronomical Twilight 5:49 AM CDT 7:46 PM CDT
Moon No Moon Rise 2:49 PM CDT (10/21)
Length of Visible Light 11h 44m
Length of Day
10h 45m
Waning Gibbous, 48% of the Moon is Illuminated
Oct 21
Waning Gibbous
Oct 27
New
Nov 4
First Quarter
Nov 12
Full
Nov 19
Last Quarter

Hourly Weather History & Observations

Time (CDT) Temp. Windchill Dew Point Humidity Pressure Visibility Wind Dir Wind Speed Gust Speed Precip Events Conditions
12:15 AM 50.9 °F - 45.3 °F 81% 29.81 in 10.0 mi East 10.4 mph - N/A   Clear
12:35 AM 50.9 °F - 44.4 °F 78% 29.80 in 10.0 mi East 9.2 mph - N/A   Clear
12:55 AM 50.4 °F - 43.7 °F 78% 29.78 in 10.0 mi East 10.4 mph - N/A   Clear
1:15 AM 50.0 °F - 42.3 °F 75% 29.76 in 10.0 mi East 8.1 mph - N/A   Clear
1:35 AM 49.8 °F - 41.4 °F 73% 29.75 in 10.0 mi East 11.5 mph - N/A   Clear
1:55 AM 50.4 °F - 41.0 °F 70% 29.74 in 10.0 mi East 12.7 mph 18.4 mph N/A   Clear
2:15 AM 50.5 °F - 40.3 °F 68% 29.74 in 10.0 mi East 10.4 mph - N/A   Clear
2:35 AM 50.7 °F - 40.3 °F 67% 29.75 in 10.0 mi ESE 9.2 mph - N/A   Mostly Cloudy
2:55 AM 50.9 °F - 40.5 °F 67% 29.73 in 10.0 mi ESE 9.2 mph - N/A   Overcast
3:15 AM 50.7 °F - 41.4 °F 70% 29.71 in 10.0 mi ESE 9.2 mph - N/A   Overcast
3:35 AM 50.5 °F - 42.6 °F 74% 29.70 in 10.0 mi East 10.4 mph - N/A   Overcast
3:55 AM 50.5 °F - 44.1 °F 78% 29.66 in 10.0 mi East 12.7 mph 17.3 mph N/A   Overcast
4:15 AM 50.4 °F - 44.6 °F 81% 29.64 in 10.0 mi East 12.7 mph 18.4 mph N/A   Overcast
4:35 AM 50.5 °F - 45.9 °F 84% 29.63 in 10.0 mi East 15.0 mph 18.4 mph N/A   Overcast
4:55 AM 50.2 °F - 46.6 °F 87% 29.61 in 10.0 mi East 12.7 mph 20.7 mph N/A   Overcast
5:15 AM 50.4 °F - 47.3 °F 89% 29.59 in 10.0 mi East 12.7 mph - N/A   Overcast
5:35 AM 50.2 °F - 47.8 °F 92% 29.57 in 10.0 mi East 12.7 mph 26.5 mph N/A   Mostly Cloudy
5:55 AM 50.2 °F - 48.4 °F 94% 29.55 in 10.0 mi East 15.0 mph 21.9 mph N/A   Mostly Cloudy
6:15 AM 50.7 °F - 48.7 °F 93% 29.53 in 10.0 mi East 13.8 mph 23.0 mph N/A   Overcast
6:35 AM 50.2 °F - 49.3 °F 97% 29.51 in 7.0 mi ESE 12.7 mph 23.0 mph 0.02 in   Overcast
6:55 AM 50.0 °F - 49.6 °F 99% 29.48 in 7.0 mi East 15.0 mph - 0.04 in   Overcast
7:15 AM 50.2 °F - 50.0 °F 99% 29.47 in 5.0 mi ESE 16.1 mph 23.0 mph 0.04 in   Overcast
7:35 AM 50.0 °F - 50.0 °F 100% 29.45 in 3.0 mi ESE 15.0 mph 21.9 mph 0.18 in   Overcast
7:55 AM 50.0 °F - 50.0 °F 100% 29.42 in 2.0 mi East 13.8 mph - 0.28 in   Overcast
8:15 AM 50.0 °F - 50.0 °F 100% 29.40 in 3.0 mi East 15.0 mph - 0.07 in   Overcast
8:35 AM 50.0 °F - 50.0 °F 100% 29.39 in 1.8 mi East 13.8 mph 21.9 mph 0.16 in   Overcast
8:55 AM 50.5 °F - 50.5 °F 100% 29.37 in 2.0 mi East 18.4 mph 24.2 mph 0.23 in   Overcast
9:15 AM 50.5 °F - 50.5 °F 100% 29.37 in 1.5 mi ESE 13.8 mph 23.0 mph 0.11 in   Overcast
9:35 AM 51.1 °F - 51.1 °F 100% 29.34 in 3.0 mi East 16.1 mph 21.9 mph 0.13 in   Overcast
9:55 AM 51.8 °F - 51.8 °F 100% 29.32 in 4.0 mi ESE 15.0 mph 19.6 mph 0.14 in   Overcast
10:15 AM 52.3 °F - 52.3 °F 100% 29.29 in 3.0 mi ESE 13.8 mph 17.3 mph 0.02 in   Overcast
10:35 AM 53.1 °F - 53.1 °F 100% 29.26 in 0.8 mi ESE 15.0 mph 23.0 mph 0.18 in   Overcast
10:55 AM 53.8 °F - 53.8 °F 100% 29.25 in 4.0 mi SE 12.7 mph 25.3 mph 0.21 in   Overcast
11:15 AM 53.8 °F - 53.8 °F 100% 29.25 in 2.0 mi SE 16.1 mph 20.7 mph 0.11 in   Overcast
11:35 AM 53.6 °F - 53.6 °F 100% 29.24 in 1.0 mi SSE 8.1 mph 16.1 mph 0.28 in   Overcast
11:55 AM 53.6 °F - 53.6 °F 100% 29.26 in 2.0 mi South 11.5 mph 21.9 mph 0.44 in   Overcast
12:15 PM 53.6 °F - 53.6 °F 100% 29.25 in 10.0 mi SSW 10.4 mph - 0.01 in   Overcast
12:35 PM 55.8 °F - 55.2 °F 98% 29.25 in 10.0 mi SSW 11.5 mph 20.7 mph 0.01 in   Mostly Cloudy
12:55 PM 56.3 °F - 55.4 °F 97% 29.24 in 10.0 mi SSW 13.8 mph 18.4 mph 0.01 in   Overcast
1:15 PM 58.1 °F - 55.4 °F 91% 29.23 in 10.0 mi SSW 8.1 mph 11.5 mph N/A   Overcast
1:35 PM 58.8 °F - 54.7 °F 86% 29.23 in 10.0 mi SSW 12.7 mph 21.9 mph N/A   Mostly Cloudy
1:55 PM 60.4 °F - 53.6 °F 78% 29.22 in 10.0 mi SSW 17.3 mph 21.9 mph N/A   Mostly Cloudy
2:15 PM 60.1 °F - 51.6 °F 74% 29.22 in 10.0 mi SSW 16.1 mph 24.2 mph N/A   Mostly Cloudy
2:35 PM 60.8 °F - 50.0 °F 68% 29.22 in 10.0 mi SSW 23.0 mph 29.9 mph N/A   Mostly Cloudy
3:15 PM 59.9 °F - 46.8 °F 62% 29.23 in 10.0 mi SSW 20.7 mph 28.8 mph N/A   Mostly Cloudy
3:35 PM 58.3 °F - 45.1 °F 62% 29.24 in 10.0 mi South 18.4 mph 29.9 mph N/A   Overcast
3:55 PM 56.8 °F - 45.0 °F 64% 29.26 in 10.0 mi SSW 23.0 mph 35.7 mph N/A   Mostly Cloudy
4:15 PM 55.0 °F - 43.3 °F 65% 29.27 in 10.0 mi SSW 24.2 mph 29.9 mph N/A   Mostly Cloudy
4:35 PM 53.6 °F - 42.8 °F 67% 29.28 in 10.0 mi SSW 25.3 mph 33.4 mph N/A   Overcast
4:55 PM 52.3 °F - 43.0 °F 70% 29.29 in 10.0 mi SSW 23.0 mph 33.4 mph N/A   Overcast
5:15 PM 50.9 °F - 42.8 °F 74% 29.30 in 10.0 mi SW 23.0 mph 33.4 mph N/A   Overcast
5:35 PM 49.3 °F - 41.9 °F 76% 29.33 in 10.0 mi SW 21.9 mph 31.1 mph N/A   Overcast
5:55 PM 48.6 °F - 41.4 °F 76% 29.33 in 10.0 mi SSW 18.4 mph 23.0 mph N/A   Overcast
6:15 PM 48.2 °F - 41.5 °F 78% 29.33 in 10.0 mi SSW 19.6 mph 26.5 mph N/A   Overcast
6:35 PM 48.2 °F - 41.4 °F 77% 29.33 in 10.0 mi SSW 20.7 mph 25.3 mph N/A   Overcast
6:55 PM 47.8 °F - 40.6 °F 76% 29.33 in 10.0 mi SSW 21.9 mph 27.6 mph N/A   Overcast
7:15 PM 47.5 °F - 40.8 °F 78% 29.33 in 10.0 mi SSW 17.3 mph 25.3 mph N/A   Overcast
7:35 PM 47.3 °F - 41.0 °F 79% 29.34 in 10.0 mi SSW 23.0 mph 27.6 mph N/A   Overcast
7:55 PM 46.6 °F - 41.5 °F 83% 29.33 in 10.0 mi SSW 18.4 mph 26.5 mph N/A   Overcast
8:15 PM 46.8 °F - 41.5 °F 82% 29.32 in 10.0 mi South 12.7 mph 23.0 mph N/A   Overcast
8:35 PM 46.6 °F - 41.5 °F 83% 29.31 in 10.0 mi South 15.0 mph 19.6 mph N/A   Overcast
8:55 PM 46.8 °F - 41.7 °F 83% 29.30 in 10.0 mi South 17.3 mph - N/A   Overcast
9:15 PM 45.9 °F 39.4 °F 42.8 °F 89% 29.29 in 10.0 mi South 15.0 mph 18.4 mph N/A   Overcast
9:35 PM 45.9 °F 39.4 °F 43.0 °F 90% 29.28 in 7.0 mi South 15.0 mph 20.7 mph N/A   Overcast
9:55 PM 45.5 °F 39.2 °F 43.7 °F 93% 29.27 in 10.0 mi South 13.8 mph 20.7 mph N/A   Overcast
10:15 PM 45.7 °F 39.5 °F 44.2 °F 95% 29.26 in 7.0 mi South 13.8 mph 23.0 mph N/A   Overcast
10:35 PM 45.5 °F 38.9 °F 44.8 °F 97% 29.25 in 7.0 mi South 15.0 mph 24.2 mph N/A   Overcast
10:55 PM 45.5 °F 38.6 °F 45.1 °F 99% 29.25 in 4.0 mi SSW 16.1 mph 31.1 mph N/A   Overcast
11:15 PM 44.2 °F 36.2 °F 42.8 °F 95% 29.25 in 10.0 mi SSW 19.6 mph 29.9 mph N/A   Overcast
11:35 PM 43.7 °F 36.0 °F 41.9 °F 93% 29.25 in 10.0 mi SSW 17.3 mph 25.3 mph N/A   Overcast
11:55 PM 43.7 °F 37.7 °F 41.9 °F 93% 29.24 in 10.0 mi South 11.5 mph - N/A   Overcast